AWC1886 MROC-MMSM

Flight info

Callsign AWC1886
Flight time N/A
Altitude 34000
Route NANJO4L LIB UL200 DORLA UZ30 NOROS UL423 IZT UJ47 MEBAS UT165 ERDEL UJ33 OTIGA OTIGA1R
Aircraft A320/M-SDFGHIJ1RWXYZ/LB1

Departure

Time N/A
Airport Juan Santamaría International Airport (MROC)

Arrival

Time 2026-04-24 21:46
Airport Felipe Ángeles International Airport (MMSM)
Time Latitude Longitude Altitude Speed Heading
2026-04-24 21:21 18.87117 -98.15028 34679 ft 452 kts 324°
2026-04-24 21:21 18.89902 -98.16548 33851 ft 448 kts 336°
2026-04-24 21:21 18.92845 -98.17545 33422 ft 443 kts 340°
2026-04-24 21:21 18.95772 -98.18494 32872 ft 436 kts 340°
2026-04-24 21:22 18.98640 -98.19442 32032 ft 428 kts 340°
2026-04-24 21:22 19.01457 -98.20384 31194 ft 421 kts 339°
2026-04-24 21:22 19.04220 -98.21310 30401 ft 414 kts 340°
2026-04-24 21:22 19.06065 -98.21927 29808 ft 409 kts 340°
2026-04-24 21:23 19.09654 -98.23123 28911 ft 406 kts 340°
2026-04-24 21:23 19.12336 -98.24011 28464 ft 403 kts 340°
2026-04-24 21:23 19.15002 -98.24888 28006 ft 400 kts 340°
2026-04-24 21:23 19.17649 -98.25755 27547 ft 397 kts 340°
2026-04-24 21:24 19.20283 -98.26622 27100 ft 395 kts 340°
2026-04-24 21:24 19.22914 -98.27492 26244 ft 402 kts 340°
2026-04-24 21:24 19.25615 -98.28389 25420 ft 409 kts 341°
2026-04-24 21:24 19.28329 -98.29290 24803 ft 408 kts 341°
2026-04-24 21:25 19.31033 -98.30186 24264 ft 406 kts 341°
2026-04-24 21:25 19.33720 -98.31067 23751 ft 404 kts 342°
2026-04-24 21:25 19.36411 -98.31879 23175 ft 401 kts 343°
2026-04-24 21:25 19.39101 -98.32634 22618 ft 398 kts 344°
2026-04-24 21:26 19.41740 -98.33346 22110 ft 395 kts 344°
2026-04-24 21:26 19.44395 -98.34057 21606 ft 392 kts 344°
2026-04-24 21:26 19.47024 -98.34769 21094 ft 389 kts 344°
2026-04-24 21:26 19.49637 -98.35489 20572 ft 386 kts 344°
2026-04-24 21:27 19.52217 -98.36209 20197 ft 380 kts 344°
2026-04-24 21:27 19.54736 -98.36917 20001 ft 368 kts 344°
2026-04-24 21:27 19.57169 -98.37607 19816 ft 360 kts 344°
2026-04-24 21:27 19.58799 -98.38069 19690 ft 358 kts 344°
2026-04-24 21:28 19.61981 -98.38969 19437 ft 357 kts 344°
2026-04-24 21:28 19.64374 -98.39644 19249 ft 356 kts 344°
2026-04-24 21:28 19.66760 -98.40317 19060 ft 355 kts 344°
2026-04-24 21:28 19.69152 -98.40991 18876 ft 355 kts 344°
2026-04-24 21:29 19.71532 -98.41659 18689 ft 354 kts 344°
2026-04-24 21:29 19.73913 -98.42329 18512 ft 353 kts 343°
2026-04-24 21:29 19.76287 -98.42998 18316 ft 353 kts 344°
2026-04-24 21:29 19.78662 -98.43670 18120 ft 353 kts 344°
2026-04-24 21:30 19.81029 -98.44354 17920 ft 351 kts 341°
2026-04-24 21:30 19.83189 -98.45427 17764 ft 337 kts 325°
2026-04-24 21:30 19.84930 -98.47025 17537 ft 326 kts 310°
2026-04-24 21:30 19.86181 -98.49015 17402 ft 324 kts 295°
2026-04-24 21:31 19.87003 -98.51238 17202 ft 323 kts 290°
2026-04-24 21:31 19.87777 -98.53480 16993 ft 322 kts 290°
2026-04-24 21:31 19.88549 -98.55708 16795 ft 321 kts 290°
2026-04-24 21:31 19.89321 -98.57929 16596 ft 320 kts 290°
2026-04-24 21:32 19.90082 -98.60117 16401 ft 319 kts 290°
2026-04-24 21:32 19.90849 -98.62323 16196 ft 318 kts 290°
2026-04-24 21:32 19.91612 -98.64521 16012 ft 317 kts 290°
2026-04-24 21:32 19.92371 -98.66714 15807 ft 316 kts 290°
2026-04-24 21:33 19.93126 -98.68899 15607 ft 315 kts 290°
2026-04-24 21:33 19.93636 -98.70374 15487 ft 314 kts 290°
2026-04-24 21:33 19.94631 -98.73248 15251 ft 312 kts 290°
2026-04-24 21:33 19.95374 -98.75397 15116 ft 305 kts 290°
2026-04-24 21:34 19.96094 -98.77483 14997 ft 296 kts 290°
2026-04-24 21:34 19.96753 -98.79526 14872 ft 288 kts 282°
2026-04-24 21:34 19.96905 -98.80939 14798 ft 282 kts 269°
2026-04-24 21:34 19.96570 -98.82932 14666 ft 276 kts 250°
2026-04-24 21:35 19.95721 -98.84739 14537 ft 271 kts 242°
2026-04-24 21:35 19.94829 -98.86479 14387 ft 265 kts 243°
2026-04-24 21:35 19.93958 -98.88181 14268 ft 259 kts 243°
2026-04-24 21:35 19.93110 -98.89842 14134 ft 253 kts 243°
2026-04-24 21:36 19.92278 -98.91468 14012 ft 247 kts 243°
2026-04-24 21:36 19.91464 -98.93054 13885 ft 241 kts 243°
2026-04-24 21:36 19.90672 -98.94599 13752 ft 235 kts 243°
2026-04-24 21:36 19.89991 -98.96162 13638 ft 232 kts 250°
2026-04-24 21:37 19.89417 -98.97759 13512 ft 232 kts 250°
2026-04-24 21:37 19.88840 -98.99355 13390 ft 232 kts 250°
2026-04-24 21:37 19.88260 -99.00951 13265 ft 231 kts 250°
2026-04-24 21:37 19.87679 -99.02544 13146 ft 234 kts 250°
2026-04-24 21:38 19.87063 -99.04227 13013 ft 251 kts 250°
2026-04-24 21:38 19.86428 -99.05967 12846 ft 253 kts 250°
2026-04-24 21:38 19.85793 -99.07707 12665 ft 253 kts 250°
2026-04-24 21:38 19.85155 -99.09450 12482 ft 253 kts 249°
2026-04-24 21:39 19.84529 -99.11190 12299 ft 252 kts 251°
2026-04-24 21:39 19.83958 -99.12944 12101 ft 251 kts 252°
2026-04-24 21:39 19.83416 -99.14702 11920 ft 251 kts 252°
2026-04-24 21:39 19.82881 -99.16459 11703 ft 250 kts 253°
2026-04-24 21:40 19.82345 -99.18212 11510 ft 249 kts 253°
2026-04-24 21:40 19.81647 -99.19892 11315 ft 250 kts 234°
2026-04-24 21:40 19.80347 -99.21102 11124 ft 252 kts 208°
2026-04-24 21:40 19.78648 -99.21544 10938 ft 255 kts 180°
2026-04-24 21:41 19.76895 -99.21387 10758 ft 257 kts 175°
2026-04-24 21:41 19.75120 -99.21193 10575 ft 257 kts 176°
2026-04-24 21:41 19.73347 -99.20999 10390 ft 256 kts 175°
2026-04-24 21:41 19.71574 -99.20804 10213 ft 255 kts 176°
2026-04-24 21:42 19.69814 -99.20601 10009 ft 255 kts 172°
2026-04-24 21:42 19.68155 -99.20028 9804 ft 246 kts 152°
2026-04-24 21:42 19.66724 -99.19085 9668 ft 239 kts 140°
2026-04-24 21:42 19.65756 -99.17706 9598 ft 230 kts 110°
2026-04-24 21:43 19.65514 -99.16053 9439 ft 225 kts 83°
2026-04-24 21:43 19.65791 -99.14442 9281 ft 221 kts 78°
2026-04-24 21:43 19.66223 -99.12899 9140 ft 217 kts 61°
2026-04-24 21:43 19.67097 -99.11672 9022 ft 202 kts 46°
2026-04-24 21:44 19.68005 -99.10566 8951 ft 196 kts 46°
2026-04-24 21:44 19.68863 -99.09518 8829 ft 181 kts 48°
2026-04-24 21:44 19.69662 -99.08543 8702 ft 170 kts 46°
2026-04-24 21:44 19.70424 -99.07613 8540 ft 164 kts 47°
2026-04-24 21:45 19.71177 -99.06694 8303 ft 164 kts 46°
2026-04-24 21:45 19.71923 -99.05783 7998 ft 162 kts 47°
2026-04-24 21:45 19.72661 -99.04883 7680 ft 162 kts 46°
2026-04-24 21:45 19.73402 -99.03976 7411 ft 163 kts 45°
2026-04-24 21:46 19.74110 -99.03114 7366 ft 137 kts 49°
2026-04-24 21:46 19.74620 -99.02489 7366 ft 87 kts 49°
2026-04-24 21:46 19.74882 -99.02177 7366 ft 34 kts 49°
2026-04-24 21:46 19.74999 -99.02032 7366 ft 26 kts 48°
2026-04-24 21:47 19.75120 -99.01881 7368 ft 21 kts 49°
2026-04-24 21:47 19.75157 -99.01781 7366 ft 15 kts 115°
2026-04-24 21:47 19.75076 -99.01704 7368 ft 17 kts 140°
2026-04-24 21:47 19.75014 -99.01623 7366 ft 11 kts 85°
2026-04-24 21:48 19.75063 -99.01553 7367 ft 13 kts 50°
2026-04-24 21:48 19.75124 -99.01475 7366 ft 15 kts 50°
2026-04-24 21:48 19.75099 -99.01422 7366 ft 10 kts 144°
2026-04-24 21:48 19.75063 -99.01394 7368 ft 0 kts 143°